Regional Weather Roundup
Issued by NWS Spokane, WA

Home | Current Version | Previous Version | Text Only | Print | Product List | Glossary On
Versions: 1 2 3 4 5 6 7 8 9 10 11 12 13 14 15 16 17 18 19 20 21 22 23 24 25 26 27 28 29 30 31 32 33 34 35 36 37 38 39 40 41 42 43 44 45 46 47 48 49 50
000
NZUS01 KOTX 231510
RWROTX
EASTERN WASHINGTON/NORTHERN IDAHO ROUNDUP
NATIONAL WEATHER SERVICE, SPOKANE WA
800 AM PDT SAT AUG 23 2014

Note: "fair" indicated few or no clouds below 12,000 feet with no
significant weather and/or obstructions to visibility.

...NORTHEAST WASHINGTON AND NORTHERN IDAHO PANHANDLE...

CITY           SKY/WX    TMP DP  RH WIND       PRES   REMARKS
SPOKANE INTL   MOSUNNY   59  43  55 N8        30.13S
SPOKANE DOWNTO SUNNY     60  45  57 CALM      30.13S
COEUR D ALENE  SUNNY     59  45  58 NE10      30.14S
DEER PARK      SUNNY     61  44  53 N6        30.15R
SANDPOINT      SUNNY     57  45  62 N12       30.15S

...SOUTHEAST WASHINGTON AND SOUTHERN IDAHO PANHANDLE...

CITY           SKY/WX    TMP DP  RH WIND       PRES   REMARKS
WALLA WALLA    SUNNY     61  50  67 S6        30.12R
PULLMAN/MOSCOW PTSUNNY   58  52  80 CALM      30.13R
LEWISTON       CLOUDY    60  58  92 CALM      30.10R
LOWELL           N/A     57  55  93 CALM      30.11R

...COLUMBIA BASIN...

CITY           SKY/WX    TMP DP  RH WIND       PRES   REMARKS
EPHRATA        SUNNY     67  50  54 N10       30.13R
MOSES LAKE     SUNNY     65  51  60 N7        30.14R
TRI CITIES     SUNNY     62  53  72 N5        30.11R
HERMISTON      SUNNY     64  52  64 W7        30.11R
PENDLETON      SUNNY     59  48  67 S5        30.12R

...EAST SLOPES CASCADES...

CITY           SKY/WX    TMP DP  RH WIND       PRES   REMARKS
THE DALLES     SUNNY     63  53  70 NW5       30.12S
YAKIMA         MOSUNNY   61  51  70 W5        30.15R
ELLENSBURG     SUNNY     59  51  75 CALM      30.16R
WENATCHEE      SUNNY     61  50  67 NW8       30.16R
OMAK           SUNNY     61  51  70 NW5       30.17R

...SOUTHERN BRITISH COLUMBIA...

CITY           SKY/WX    TMP DP  RH WIND       PRES   REMARKS
PENTICTON      MOSUNNY   63  54  72 N6        30.18S
CRANBROOK      PTSUNNY   55  46  71 NW2       30.24S

...WESTERN MONTANA...

CITY           SKY/WX    TMP DP  RH WIND       PRES   REMARKS
MISSOULA       LGT RAIN  53  46  77 NW9       30.16R

...NEIGHBORING CITIES...

CITY           SKY/WX    TMP DP  RH WIND       PRES   REMARKS
SEATTLE        MOSUNNY   59  54  83 S3        30.16R
CALGARY        MOSUNNY   50  45  81 CALM      30.34R



USA.gov is the U.S. government's official web portal to all federal, state and local government web resources and services.